Zurück zum Katalog

STARLINK-32836

AktivKommunikationVLEO
NORAD 62965·PAYLOAD·🇺🇸 United States

Gestartet Feb 11, 2025 von Vandenberg Space Force Base

Loading…

Nächste Überflüge (nächste 24 Stunden)

TLE

AktuellSource: CelesTrak SupGP

Epoche: Sep 15, 2026, 02:12 UTC

1 62965C 25029T   26258.09215278 -.00025964  00000+0 -76715-3 0  2587
2 62965  53.1571  67.2721 0001132  86.4898 232.1156 15.34401566    13

Verfolge STARLINK-32836 in Echtzeit mit AllMySat

Download on the App Store